TimeEST,TemperatureF,Dew PointF,Humidity,Sea Level PressureIn,VisibilityMPH,Wind Direction,Wind SpeedMPH,Gust SpeedMPH,PrecipitationIn,Events,Conditions,WindDirDegrees,DateUTC
12:53 AM,36.0,33.1,89,30.15,10.0,NNE,10.4,-,N/A,,Overcast,20,2011-12-06 05:53:00
1:53 AM,36.0,33.1,89,30.15,10.0,North,10.4,-,N/A,,Overcast,10,2011-12-06 06:53:00
2:53 AM,36.0,33.1,89,30.14,10.0,NNE,13.8,-,N/A,,Overcast,20,2011-12-06 07:53:00
3:53 AM,36.0,32.0,86,30.13,10.0,NE,12.7,21.9,N/A,,Overcast,40,2011-12-06 08:53:00
4:53 AM,35.1,33.1,92,30.13,10.0,NNE,10.4,-,N/A,,Overcast,30,2011-12-06 09:53:00
5:53 AM,35.1,32.0,89,30.15,10.0,NNE,10.4,-,N/A,,Overcast,30,2011-12-06 10:53:00
6:53 AM,35.1,33.1,92,30.16,10.0,NNE,11.5,-,N/A,,Overcast,30,2011-12-06 11:53:00
7:53 AM,35.1,32.0,89,30.16,8.0,NNE,16.1,21.9,N/A,,Overcast,30,2011-12-06 12:53:00
8:10 AM,35.6,32.0,87,30.14,6.0,NNE,10.4,-,N/A,,Overcast,30,2011-12-06 13:10:00
8:53 AM,35.1,32.0,89,30.17,10.0,NNE,11.5,-,N/A,,Overcast,30,2011-12-06 13:53:00
9:53 AM,35.1,32.0,89,30.17,7.0,NE,11.5,-,N/A,,Overcast,40,2011-12-06 14:53:00
10:09 AM,35.6,32.0,87,30.15,5.0,NNE,12.7,-,N/A,,Overcast,30,2011-12-06 15:09:00
10:41 AM,35.6,32.0,87,30.16,6.0,NE,8.1,-,N/A,,Overcast,50,2011-12-06 15:41:00
10:53 AM,35.1,32.0,89,30.18,5.0,NE,10.4,-,N/A,,Overcast,50,2011-12-06 15:53:00
11:15 AM,35.6,33.8,93,30.16,2.5,NNE,11.5,-,N/A,,Overcast,30,2011-12-06 16:15:00
11:23 AM,35.6,33.8,93,30.15,3.0,NE,11.5,-,N/A,,Overcast,40,2011-12-06 16:23:00
11:31 AM,35.6,33.8,93,30.15,2.5,NNE,10.4,-,N/A,,Overcast,20,2011-12-06 16:31:00
11:53 AM,34.0,32.0,92,30.17,2.5,NNE,11.5,-,N/A,,Overcast,20,2011-12-06 16:53:00
12:02 PM,33.8,32.0,93,30.14,3.0,NNE,9.2,-,N/A,,Overcast,20,2011-12-06 17:02:00
12:53 PM,35.1,32.0,89,30.14,10.0,NNE,9.2,-,N/A,,Overcast,30,2011-12-06 17:53:00
1:07 PM,33.8,30.2,87,30.12,6.0,North,10.4,-,N/A,,Overcast,360,2011-12-06 18:07:00
1:41 PM,33.8,32.0,93,30.13,2.5,NNE,9.2,-,N/A,,Overcast,20,2011-12-06 18:41:00
1:48 PM,33.8,32.0,93,30.13,3.0,NNE,9.2,-,N/A,,Overcast,20,2011-12-06 18:48:00
2:02 PM,33.8,32.0,93,30.11,7.0,NNE,9.2,-,N/A,,Overcast,30,2011-12-06 19:02:00
2:53 PM,35.1,30.9,85,30.11,10.0,NE,8.1,-,N/A,,Overcast,50,2011-12-06 19:53:00
3:53 PM,35.1,30.9,85,30.13,10.0,North,4.6,-,N/A,,Overcast,10,2011-12-06 20:53:00
4:28 PM,33.8,32.0,93,30.11,2.5,NNW,3.5,-,N/A,,Overcast,340,2011-12-06 21:28:00
4:37 PM,33.8,32.0,93,30.11,1.8,North,6.9,-,N/A,,Overcast,360,2011-12-06 21:37:00
4:53 PM,34.0,32.0,92,30.13,2.5,North,5.8,-,N/A,,Overcast,10,2011-12-06 21:53:00
5:09 PM,33.8,32.0,93,30.11,2.5,NNE,5.8,-,N/A,,Overcast,20,2011-12-06 22:09:00
5:21 PM,33.8,32.0,93,30.11,4.0,North,5.8,-,N/A,,Overcast,360,2011-12-06 22:21:00
5:53 PM,34.0,30.9,89,30.13,3.0,NE,6.9,-,N/A,,Overcast,40,2011-12-06 22:53:00
6:17 PM,33.8,32.0,93,30.10,10.0,NNE,6.9,-,N/A,,Overcast,20,2011-12-06 23:17:00
6:19 PM,33.8,32.0,93,30.09,10.0,North,5.8,-,N/A,,Overcast,10,2011-12-06 23:19:00
6:53 PM,33.1,30.9,92,30.11,10.0,NNE,6.9,-,N/A,,Overcast,20,2011-12-06 23:53:00
7:53 PM,33.1,30.9,92,30.13,10.0,North,9.2,-,N/A,,Overcast,360,2011-12-07 00:53:00
8:26 PM,33.8,30.2,87,30.12,10.0,NNE,6.9,-,N/A,,Overcast,20,2011-12-07 01:26:00
8:53 PM,33.1,30.0,89,30.14,10.0,North,8.1,-,N/A,,Overcast,10,2011-12-07 01:53:00
9:53 PM,33.1,28.9,85,30.14,10.0,North,4.6,-,N/A,,Overcast,360,2011-12-07 02:53:00
10:53 PM,33.1,28.9,85,30.13,10.0,North,5.8,-,N/A,,Overcast,10,2011-12-07 03:53:00
11:53 PM,33.1,28.0,82,30.12,10.0,NNW,4.6,-,N/A,,Overcast,340,2011-12-07 04:53:00